LEAB

Albacete Airport

Airport
ICAO code
LEAB
IATA Code
ABC
Summary
ICAO Region
EUR
ICAO Territory
Location

Albacete, Castilla–La Mancha

Serving
Albacete
Elevation
2302 ft
Coordinates
38° 56' 58" N , 1° 51' 48" W
KCC
Metar
LEAB 201930Z 30010KT CAVOK 32/04 Q1011 NOSIG

Albacete Airport is an airport located at the Los Llanos Air Base, about 4 miles south of the city of Albacete, Spain.

Climatology

Dry-summer subtropical ”Mediterranean" climate (Köppen climate classification Csa) - characterized by hot, dry summers and mild winters. During the summer, subtropical high pressure cells dominate, making rainfall unlikely except for the occasional thunderstorm. In the winter, periodic storms bring rain (snow at higher elevations).

Runways

Designator Length Width Surface Rops
9/27 2700 60 ASP No/No

Airport map

Aerial View

SKYbrary Partners:

Safety knowledge contributed by: